Precipitable_Water
0.96 0.89 0.94 1.06 1.15 1.21 1.20 1.19 1.18 1.16 1.16 1.15 1.10 1.07 1.14 1.16 1.17 1.21 1.22 1.23 1.23 1.22 1.20 1.22 1.25 1.28 1.30 1.32 1.33 1.34 1.35 1.36 1.37 1.35 1.35 1.30 1.29 1.29 1.28 1.26 1.21 1.12 1.03 1.00 0.91 0.92 0.88 0.83 0.79 0.85 0.94 0.96 0.97 0.99 0.93 0.96 1.09 1.13 1.10 1.08 1.07 1.03 0.97 0.94 0.92 0.93 0.96 0.98 0.98 0.97 0.92 0.85 0.83 0.83 0.79 0.82 0.85 0.84 0.85 0.86 0.86 0.87 0.88 0.85 0.83
0.95 0.95 0.97 1.08 1.16 1.19 1.21 1.20 1.19 1.16 1.16 1.15 1.11 1.07 1.12 1.17 1.20 1.22 1.22 1.24 1.24 1.22 1.20 1.20 1.24 1.26 1.28 1.31 1.31 1.31 1.34 1.37 1.37 1.35 1.32 1.29 1.30 1.31 1.29 1.25 1.16 1.08 1.04 0.99 0.93 0.97 0.92 0.80 0.78 0.81 0.88 0.92 0.94 0.98 0.92 0.95 1.02 1.03 1.05 1.03 0.97 0.95 0.95 0.91 0.87 0.90 0.92 0.92 0.92 0.92 0.90 0.88 0.86 0.84 0.81 0.80 0.84 0.85 0.85 0.82 0.80 0.86 0.84 0.81 0.84
0.99 0.96 1.00 1.09 1.16 1.19 1.20 1.20 1.19 1.17 1.16 1.16 1.13 1.09 1.11 1.19 1.22 1.23 1.25 1.26 1.26 1.23 1.21 1.21 1.23 1.26 1.28 1.29 1.32 1.32 1.33 1.34 1.36 1.34 1.33 1.31 1.29 1.29 1.29 1.24 1.15 1.09 1.06 0.99 0.96 0.97 0.94 0.83 0.79 0.83 0.84 0.89 0.98 1.01 0.96 0.96 0.99 1.02 0.99 0.94 0.88 0.84 0.84 0.84 0.87 0.87 0.88 0.87 0.88 0.86 0.86 0.90 0.91 0.88 0.85 0.84 0.84 0.80 0.75 0.80 0.83 0.82 0.81 0.81 0.83
0.94 0.96 1.02 1.13 1.17 1.19 1.20 1.20 1.18 1.17 1.17 1.16 1.13 1.09 1.14 1.19 1.22 1.25 1.27 1.27 1.26 1.24 1.23 1.22 1.22 1.25 1.27 1.31 1.33 1.32 1.31 1.34 1.36 1.34 1.32 1.30 1.30 1.29 1.25 1.22 1.15 1.09 1.06 1.00 1.04 0.96 0.89 0.75 0.79 0.81 0.86 0.90 0.96 1.00 0.99 1.00 1.00 0.97 0.91 0.85 0.83 0.82 0.81 0.80 0.80 0.84 0.85 0.86 0.84 0.83 0.85 0.87 0.86 0.81 0.83 0.81 0.77 0.77 0.77 0.78 0.81 0.81 0.80 0.81 0.82
0.97 0.99 1.04 1.12 1.20 1.20 1.20 1.20 1.17 1.16 1.17 1.15 1.12 1.10 1.15 1.20 1.24 1.26 1.27 1.28 1.27 1.26 1.23 1.22 1.22 1.25 1.28 1.31 1.32 1.32 1.30 1.31 1.32 1.32 1.31 1.29 1.26 1.25 1.26 1.24 1.12 1.05 1.05 1.09 1.04 0.92 0.86 0.75 0.79 0.83 0.87 0.92 0.97 1.00 0.99 0.98 0.96 0.93 0.89 0.88 0.87 0.88 0.89 0.89 0.87 0.83 0.83 0.84 0.82 0.82 0.83 0.82 0.83 0.80 0.81 0.80 0.78 0.78 0.79 0.78 0.79 0.82 0.83 0.84 0.84
0.98 1.00 1.05 1.13 1.20 1.20 1.20 1.18 1.14 1.15 1.16 1.14 1.10 1.13 1.19 1.24 1.25 1.25 1.27 1.28 1.27 1.26 1.24 1.24 1.24 1.26 1.28 1.30 1.31 1.30 1.29 1.28 1.27 1.26 1.25 1.23 1.22 1.22 1.20 1.12 1.01 1.05 1.10 1.09 1.09 0.92 0.80 0.76 0.80 0.83 0.90 0.96 0.98 0.99 1.00 1.00 0.96 0.92 0.91 0.89 0.89 0.90 0.92 0.94 0.94 0.90 0.85 0.80 0.80 0.82 0.81 0.82 0.83 0.83 0.81 0.80 0.79 0.79 0.80 0.81 0.81 0.82 0.84 0.84 0.85
0.97 1.00 1.05 1.13 1.17 1.19 1.19 1.15 1.13 1.14 1.15 1.12 1.13 1.18 1.24 1.25 1.24 1.26 1.27 1.27 1.26 1.26 1.26 1.26 1.27 1.26 1.27 1.28 1.29 1.29 1.27 1.24 1.22 1.21 1.20 1.21 1.21 1.25 1.19 1.08 1.04 1.10 1.11 1.14 1.13 0.99 0.85 0.85 0.84 0.90 0.94 0.97 0.98 0.99 0.99 0.96 0.93 0.94 0.95 0.96 0.96 0.96 0.96 0.96 0.96 0.95 0.89 0.87 0.86 0.86 0.86 0.86 0.86 0.86 0.81 0.83 0.79 0.77 0.77 0.77 0.77 0.80 0.85 0.86 0.84
1.00 0.99 1.05 1.11 1.16 1.17 1.16 1.12 1.13 1.13 1.14 1.12 1.18 1.25 1.25 1.24 1.25 1.27 1.26 1.26 1.25 1.25 1.26 1.27 1.26 1.25 1.26 1.27 1.28 1.28 1.26 1.22 1.19 1.18 1.18 1.20 1.19 1.16 1.09 1.01 0.97 0.97 0.93 0.92 0.92 0.91 0.89 0.86 0.92 0.96 0.98 0.99 1.00 1.00 1.00 1.00 0.99 0.99 0.98 0.98 0.98 0.97 0.98 0.97 0.95 0.94 0.94 0.92 0.88 0.88 0.89 0.89 0.90 0.86 0.81 0.81 0.83 0.81 0.81 0.80 0.80 0.81 0.83 0.82 0.86
0.97 1.01 1.05 1.10 1.15 1.14 1.13 1.11 1.12 1.15 1.15 1.16 1.23 1.27 1.26 1.25 1.26 1.27 1.26 1.25 1.24 1.25 1.26 1.27 1.28 1.26 1.25 1.26 1.27 1.27 1.24 1.21 1.18 1.18 1.15 1.11 1.10 1.05 0.98 0.96 0.99 0.97 0.99 0.92 0.89 0.98 0.96 0.93 0.96 1.00 1.01 1.01 1.01 1.01 1.00 1.00 1.00 0.99 0.97 0.97 0.95 0.97 0.97 0.97 0.95 0.94 0.98 0.98 0.96 0.93 0.91 0.92 0.96 0.95 0.88 0.86 0.84 0.82 0.79 0.80 0.82 0.81 0.82 0.86 0.88
1.00 1.02 1.05 1.08 1.14 1.14 1.12 1.11 1.13 1.15 1.17 1.20 1.26 1.27 1.26 1.26 1.27 1.26 1.25 1.24 1.23 1.24 1.26 1.28 1.28 1.26 1.25 1.25 1.25 1.25 1.22 1.20 1.18 1.13 1.09 1.07 1.05 1.02 0.97 0.99 1.06 1.04 1.04 0.98 0.92 0.92 0.96 0.97 1.01 1.03 1.03 1.03 1.01 1.02 1.02 1.00 1.00 0.99 0.98 0.98 1.01 1.03 1.02 1.01 1.00 0.99 1.02 1.01 1.01 0.95 0.94 0.97 1.00 0.99 0.95 0.90 0.88 0.85 0.84 0.80 0.83 0.83 0.86 0.86 0.86
1.01 1.03 1.06 1.11 1.15 1.13 1.11 1.11 1.14 1.15 1.16 1.22 1.26 1.27 1.27 1.27 1.26 1.24 1.23 1.23 1.22 1.24 1.26 1.28 1.28 1.27 1.23 1.23 1.22 1.22 1.21 1.16 1.12 1.09 1.06 1.03 0.99 0.94 0.92 0.94 0.96 1.00 1.01 1.01 0.98 0.97 1.01 1.00 1.02 1.04 1.02 1.00 0.98 0.99 1.00 1.00 1.00 1.00 1.00 1.02 1.05 1.05 1.04 1.03 1.00 1.00 1.01 1.02 1.00 0.97 0.97 0.98 1.02 1.03 1.01 0.99 0.96 0.93 0.90 0.88 0.89 0.89 0.90 0.89 0.89
1.05 1.09 1.10 1.14 1.17 1.14 1.11 1.12 1.13 1.12 1.15 1.21 1.25 1.27 1.27 1.27 1.26 1.25 1.24 1.22 1.22 1.24 1.26 1.27 1.27 1.25 1.22 1.20 1.18 1.18 1.15 1.10 1.06 1.05 1.03 1.00 0.96 0.91 0.91 0.93 0.96 0.99 1.02 0.99 0.96 0.98 0.99 1.00 1.01 1.02 1.01 1.01 1.02 1.02 1.03 1.03 1.02 1.02 1.03 1.04 1.06 1.06 1.04 1.02 1.01 1.01 1.01 1.02 1.01 0.99 1.00 1.05 1.05 1.04 1.05 1.06 1.03 1.01 0.99 0.98 0.98 0.95 0.94 0.95 0.95
1.17 1.21 1.23 1.27 1.24 1.18 1.15 1.16 1.15 1.12 1.13 1.21 1.25 1.25 1.26 1.27 1.26 1.24 1.24 1.22 1.22 1.23 1.24 1.26 1.26 1.24 1.19 1.14 1.12 1.08 1.04 0.99 0.95 0.94 0.95 0.92 0.90 0.88 0.89 0.92 0.93 0.97 1.00 0.99 0.97 0.98 1.02 1.01 1.02 1.02 1.03 1.04 1.05 1.05 1.05 1.05 1.05 1.05 1.06 1.07 1.09 1.11 1.09 1.03 1.03 1.03 1.03 1.04 1.03 1.04 1.04 1.06 1.08 1.05 1.08 1.10 1.09 1.05 1.04 1.06 1.07 1.06 1.07 1.04 1.02
1.17 1.21 1.27 1.32 1.29 1.23 1.19 1.20 1.17 1.12 1.13 1.20 1.24 1.25 1.26 1.26 1.26 1.24 1.22 1.20 1.21 1.22 1.22 1.24 1.24 1.20 1.12 1.05 1.00 0.97 0.94 0.89 0.86 0.84 0.83 0.83 0.84 0.84 0.86 0.90 0.91 0.95 0.98 0.96 0.96 0.99 1.01 1.03 1.01 1.00 1.01 1.03 1.06 1.08 1.09 1.08 1.08 1.08 1.09 1.11 1.13 1.14 1.11 1.06 1.04 1.05 1.04 1.05 1.05 1.07 1.06 1.08 1.09 1.04 1.07 1.12 1.11 1.11 1.10 1.12 1.13 1.13 1.13 1.12 1.11
1.16 1.19 1.29 1.33 1.28 1.23 1.22 1.21 1.17 1.13 1.15 1.22 1.24 1.24 1.25 1.26 1.25 1.22 1.20 1.19 1.20 1.19 1.20 1.21 1.18 1.12 1.04 0.96 0.93 0.90 0.89 0.87 0.83 0.80 0.78 0.78 0.79 0.81 0.83 0.88 0.91 0.92 0.94 0.94 0.93 0.96 1.01 1.03 1.03 1.02 1.02 1.03 1.05 1.07 1.09 1.09 1.09 1.08 1.09 1.10 1.10 1.12 1.12 1.08 1.05 1.02 1.02 1.05 1.07 1.06 1.07 1.08 1.07 1.06 1.06 1.12 1.13 1.13 1.13 1.14 1.14 1.12 1.11 1.11 1.12
1.22 1.24 1.33 1.34 1.27 1.24 1.21 1.20 1.16 1.14 1.18 1.21 1.24 1.24 1.26 1.26 1.24 1.21 1.20 1.19 1.18 1.18 1.19 1.17 1.13 1.05 0.97 0.91 0.89 0.88 0.88 0.85 0.84 0.82 0.79 0.77 0.76 0.77 0.81 0.85 0.89 0.90 0.93 0.93 0.91 0.91 0.98 1.03 1.04 1.04 1.04 1.05 1.06 1.07 1.07 1.07 1.06 1.07 1.09 1.09 1.06 1.08 1.10 1.06 1.06 1.03 1.03 1.03 1.04 1.04 1.06 1.06 1.04 1.05 1.07 1.10 1.12 1.13 1.15 1.15 1.16 1.14 1.13 1.14 1.15
1.23 1.30 1.33 1.30 1.28 1.24 1.20 1.18 1.14 1.14 1.17 1.20 1.23 1.25 1.27 1.25 1.23 1.21 1.20 1.19 1.19 1.18 1.16 1.12 1.05 0.98 0.94 0.91 0.90 0.89 0.87 0.88 0.86 0.82 0.78 0.77 0.74 0.75 0.79 0.84 0.87 0.88 0.90 0.92 0.90 0.88 0.91 0.98 1.03 1.02 1.02 1.03 1.05 1.05 1.05 1.04 1.03 1.04 1.07 1.08 1.04 1.00 1.04 1.00 1.02 1.02 1.01 0.99 1.00 1.03 1.07 1.07 1.06 1.06 1.10 1.12 1.14 1.16 1.17 1.18 1.19 1.19 1.18 1.20 1.22
1.25 1.30 1.29 1.29 1.24 1.25 1.18 1.15 1.15 1.14 1.16 1.17 1.23 1.26 1.25 1.25 1.23 1.22 1.21 1.21 1.20 1.17 1.13 1.06 1.01 0.98 0.96 0.92 0.92 0.91 0.90 0.90 0.89 0.85 0.82 0.81 0.78 0.75 0.80 0.85 0.87 0.88 0.90 0.91 0.89 0.88 0.86 0.91 0.97 0.98 0.99 1.01 1.03 1.03 1.01 1.00 1.00 1.01 1.04 1.06 1.06 1.02 1.00 0.98 1.00 1.03 1.02 1.01 1.03 1.07 1.09 1.08 1.07 1.09 1.12 1.15 1.18 1.21 1.21 1.21 1.23 1.25 1.26 1.27 1.27
1.26 1.26 1.25 1.26 1.22 1.20 1.15 1.12 1.13 1.11 1.12 1.19 1.27 1.27 1.24 1.24 1.22 1.22 1.21 1.21 1.20 1.16 1.11 1.05 1.02 0.98 0.95 0.92 0.94 0.95 0.94 0.94 0.94 0.92 0.89 0.86 0.84 0.81 0.81 0.86 0.89 0.89 0.91 0.91 0.91 0.89 0.87 0.84 0.87 0.91 0.93 0.95 0.97 0.99 0.97 0.96 0.98 1.00 1.03 1.06 1.07 1.08 1.05 1.03 1.03 1.04 1.05 1.07 1.09 1.10 1.14 1.15 1.14 1.16 1.20 1.22 1.23 1.24 1.26 1.27 1.28 1.30 1.30 1.31 1.30
1.22 1.21 1.18 1.23 1.20 1.13 1.12 1.09 1.10 1.08 1.10 1.19 1.26 1.24 1.24 1.23 1.22 1.22 1.22 1.22 1.19 1.15 1.08 1.04 1.02 1.00 0.98 0.96 0.98 0.99 1.00 1.00 1.01 1.00 0.96 0.94 0.92 0.89 0.85 0.84 0.89 0.91 0.92 0.93 0.91 0.91 0.90 0.87 0.84 0.86 0.88 0.89 0.91 0.91 0.91 0.94 0.98 1.00 1.02 1.04 1.03 1.05 1.06 1.04 1.03 1.04 1.09 1.13 1.16 1.21 1.23 1.25 1.25 1.24 1.24 1.24 1.26 1.27 1.30 1.33 1.33 1.32 1.32 1.33 1.31
1.15 1.15 1.15 1.17 1.15 1.09 1.08 1.05 1.05 1.04 1.09 1.15 1.21 1.20 1.24 1.23 1.23 1.24 1.24 1.22 1.18 1.13 1.08 1.06 1.05 1.05 1.02 0.98 0.97 0.99 1.00 1.02 1.05 1.06 1.04 1.05 1.03 0.98 0.92 0.87 0.86 0.91 0.94 0.94 0.93 0.91 0.91 0.90 0.88 0.84 0.84 0.84 0.84 0.82 0.83 0.88 0.94 0.98 1.01 1.02 1.02 1.06 1.04 1.03 1.07 1.13 1.17 1.21 1.23 1.27 1.27 1.28 1.28 1.28 1.27 1.28 1.29 1.30 1.31 1.34 1.34 1.33 1.33 1.39 1.42
1.05 1.09 1.14 1.13 1.10 1.09 1.06 1.04 1.01 1.03 1.09 1.15 1.16 1.20 1.25 1.25 1.27 1.25 1.24 1.21 1.17 1.12 1.09 1.11 1.12 1.11 1.07 1.04 1.04 1.02 1.02 1.06 1.12 1.15 1.12 1.11 1.12 1.10 1.05 0.97 0.93 0.92 0.94 0.95 0.93 0.92 0.91 0.89 0.89 0.87 0.84 0.83 0.80 0.82 0.83 0.86 0.93 0.96 0.97 0.99 1.03 1.03 1.06 1.11 1.13 1.15 1.17 1.22 1.26 1.28 1.26 1.26 1.27 1.29 1.31 1.30 1.28 1.28 1.29 1.32 1.37 1.43 1.48 1.52 1.53
1.00 1.07 1.08 1.11 1.11 1.07 1.08 1.07 1.03 1.05 1.12 1.17 1.18 1.22 1.31 1.30 1.28 1.26 1.24 1.21 1.17 1.12 1.12 1.12 1.14 1.15 1.12 1.11 1.11 1.11 1.14 1.21 1.28 1.34 1.30 1.23 1.24 1.20 1.14 1.09 1.04 0.98 0.95 0.94 0.97 0.96 0.93 0.91 0.89 0.86 0.86 0.86 0.88 0.87 0.86 0.89 0.93 0.94 0.96 0.99 1.01 1.05 1.09 1.13 1.15 1.17 1.20 1.25 1.29 1.27 1.28 1.29 1.29 1.30 1.31 1.30 1.28 1.26 1.26 1.32 1.40 1.42 1.44 1.50 1.50
0.98 1.00 1.01 1.12 1.13 1.10 1.10 1.09 1.07 1.08 1.12 1.18 1.22 1.27 1.30 1.29 1.27 1.25 1.24 1.21 1.14 1.12 1.13 1.15 1.16 1.14 1.13 1.16 1.18 1.23 1.27 1.33 1.39 1.44 1.42 1.42 1.40 1.36 1.31 1.24 1.17 1.10 1.04 1.02 0.98 0.96 0.96 0.95 0.92 0.93 0.95 0.95 0.95 0.93 0.93 0.94 0.97 0.99 1.02 1.06 1.08 1.11 1.13 1.15 1.19 1.22 1.26 1.28 1.30 1.29 1.30 1.30 1.29 1.29 1.28 1.26 1.26 1.28 1.34 1.40 1.41 1.44 1.43 1.40 1.42
1.00 1.10 1.02 1.05 1.10 1.14 1.14 1.10 1.11 1.15 1.18 1.22 1.21 1.23 1.30 1.30 1.29 1.28 1.24 1.20 1.12 1.11 1.14 1.18 1.16 1.14 1.16 1.19 1.21 1.26 1.34 1.42 1.47 1.48 1.46 1.42 1.37 1.36 1.37 1.35 1.34 1.27 1.19 1.13 1.08 1.02 0.98 0.95 0.97 1.00 1.01 1.02 1.01 0.99 1.00 1.00 1.02 1.04 1.05 1.08 1.13 1.19 1.22 1.24 1.26 1.28 1.30 1.34 1.33 1.31 1.30 1.28 1.27 1.26 1.27 1.27 1.24 1.20 1.23 1.27 1.31 1.32 1.33 1.37 1.42
1.06 1.02 1.03 1.07 1.15 1.18 1.18 1.13 1.14 1.18 1.22 1.24 1.24 1.27 1.31 1.27 1.27 1.27 1.24 1.20 1.14 1.13 1.17 1.18 1.17 1.18 1.22 1.27 1.33 1.37 1.41 1.45 1.49 1.47 1.43 1.39 1.34 1.34 1.35 1.35 1.36 1.34 1.35 1.31 1.24 1.17 1.11 1.05 1.02 1.01 1.02 1.05 1.03 1.04 1.04 1.03 1.03 1.07 1.12 1.19 1.22 1.24 1.25 1.28 1.29 1.31 1.32 1.32 1.30 1.28 1.26 1.24 1.24 1.25 1.24 1.21 1.16 1.13 1.15 1.20 1.26 1.29 1.35 1.39 1.39
1.02 0.98 1.11 1.08 1.16 1.23 1.23 1.20 1.16 1.19 1.24 1.29 1.31 1.32 1.30 1.30 1.29 1.28 1.23 1.19 1.19 1.16 1.19 1.20 1.20 1.26 1.30 1.33 1.36 1.40 1.43 1.48 1.48 1.45 1.39 1.39 1.34 1.34 1.32 1.34 1.34 1.35 1.39 1.35 1.33 1.33 1.28 1.24 1.22 1.19 1.18 1.16 1.17 1.18 1.18 1.20 1.22 1.24 1.27 1.26 1.26 1.26 1.26 1.26 1.26 1.26 1.28 1.28 1.28 1.26 1.23 1.21 1.20 1.20 1.20 1.18 1.15 1.15 1.18 1.21 1.24 1.30 1.34 1.35 1.35
1.01 1.03 1.09 1.10 1.13 1.18 1.22 1.19 1.17 1.19 1.25 1.32 1.32 1.32 1.35 1.34 1.32 1.29 1.25 1.22 1.21 1.20 1.23 1.20 1.23 1.31 1.34 1.41 1.46 1.45 1.48 1.47 1.44 1.42 1.38 1.37 1.33 1.30 1.32 1.34 1.35 1.37 1.41 1.40 1.36 1.36 1.35 1.34 1.32 1.32 1.32 1.34 1.33 1.34 1.33 1.32 1.32 1.31 1.25 1.21 1.20 1.21 1.21 1.20 1.21 1.22 1.24 1.25 1.23 1.19 1.15 1.14 1.14 1.15 1.15 1.15 1.17 1.18 1.21 1.23 1.25 1.27 1.29 1.29 1.30
0.99 1.07 1.12 1.12 1.11 1.14 1.16 1.16 1.18 1.21 1.26 1.32 1.31 1.34 1.39 1.38 1.34 1.29 1.23 1.24 1.23 1.28 1.29 1.26 1.23 1.33 1.40 1.46 1.49 1.49 1.51 1.46 1.42 1.40 1.38 1.33 1.34 1.35 1.36 1.35 1.36 1.35 1.39 1.38 1.37 1.34 1.34 1.34 1.34 1.33 1.34 1.34 1.34 1.32 1.31 1.29 1.28 1.25 1.20 1.15 1.14 1.12 1.12 1.12 1.13 1.15 1.15 1.17 1.13 1.10 1.09 1.08 1.08 1.09 1.12 1.16 1.19 1.21 1.22 1.25 1.30 1.32 1.31 1.32 1.32
1.04 1.10 1.12 1.13 1.11 1.12 1.13 1.15 1.21 1.22 1.29 1.34 1.36 1.37 1.40 1.37 1.35 1.31 1.27 1.26 1.28 1.33 1.33 1.30 1.28 1.33 1.40 1.47 1.53 1.56 1.51 1.46 1.43 1.42 1.37 1.35 1.40 1.42 1.38 1.36 1.33 1.34 1.33 1.33 1.38 1.35 1.34 1.33 1.32 1.29 1.26 1.26 1.26 1.26 1.26 1.21 1.17 1.15 1.11 1.06 1.04 1.04 1.05 1.05 1.04 1.06 1.07 1.10 1.08 1.05 1.07 1.06 1.06 1.08 1.10 1.13 1.16 1.19 1.21 1.23 1.26 1.30 1.31 1.29 1.27
1.10 1.09 1.12 1.13 1.12 1.10 1.15 1.22 1.25 1.28 1.34 1.36 1.39 1.41 1.43 1.40 1.39 1.34 1.30 1.32 1.37 1.37 1.37 1.34 1.34 1.37 1.44 1.52 1.58 1.60 1.53 1.50 1.46 1.43 1.41 1.39 1.41 1.40 1.38 1.36 1.32 1.31 1.32 1.30 1.32 1.33 1.34 1.31 1.27 1.24 1.23 1.23 1.21 1.21 1.16 1.10 1.07 1.04 1.04 1.01 1.01 1.00 0.98 0.98 0.98 0.99 0.99 0.99 1.01 1.02 1.02 1.05 1.04 1.04 1.04 1.06 1.08 1.11 1.14 1.17 1.20 1.22 1.24 1.24 1.22
1.11 1.11 1.15 1.17 1.13 1.14 1.20 1.28 1.31 1.35 1.40 1.43 1.45 1.43 1.42 1.43 1.43 1.37 1.34 1.40 1.42 1.40 1.39 1.37 1.35 1.42 1.51 1.60 1.63 1.60 1.58 1.54 1.49 1.43 1.38 1.38 1.39 1.39 1.37 1.35 1.33 1.35 1.35 1.34 1.33 1.34 1.32 1.31 1.30 1.26 1.23 1.18 1.12 1.09 1.08 1.04 1.00 1.00 1.00 0.97 0.96 0.92 0.91 0.92 0.91 0.92 0.93 0.94 0.96 0.98 0.98 1.00 1.01 1.00 0.98 0.99 1.00 1.03 1.06 1.09 1.13 1.15 1.17 1.19 1.20
1.16 1.18 1.18 1.17 1.14 1.20 1.25 1.32 1.39 1.40 1.44 1.46 1.47 1.48 1.46 1.46 1.43 1.39 1.41 1.44 1.42 1.42 1.39 1.38 1.38 1.48 1.61 1.67 1.64 1.62 1.61 1.52 1.43 1.39 1.40 1.42 1.41 1.40 1.38 1.38 1.35 1.34 1.35 1.35 1.34 1.33 1.29 1.25 1.20 1.17 1.11 1.08 1.04 1.03 1.03 1.01 0.97 0.96 0.95 0.92 0.90 0.86 0.87 0.86 0.86 0.87 0.88 0.89 0.91 0.92 0.93 0.96 0.98 0.98 0.95 0.92 0.92 0.94 0.97 1.02 1.05 1.09 1.12 1.13 1.13
1.17 1.19 1.20 1.17 1.23 1.30 1.35 1.39 1.44 1.46 1.49 1.51 1.52 1.50 1.47 1.46 1.46 1.45 1.44 1.43 1.43 1.42 1.41 1.41 1.45 1.57 1.69 1.68 1.65 1.62 1.60 1.50 1.44 1.42 1.45 1.43 1.40 1.39 1.36 1.33 1.34 1.36 1.37 1.35 1.27 1.21 1.13 1.07 1.03 0.99 0.97 0.96 0.94 0.95 0.96 0.93 0.94 0.94 0.90 0.88 0.86 0.83 0.82 0.81 0.81 0.82 0.84 0.85 0.87 0.88 0.90 0.92 0.94 0.96 0.97 0.93 0.90 0.89 0.90 0.93 0.96 1.00 1.03 1.06 1.07
1.20 1.20 1.18 1.21 1.28 1.32 1.37 1.39 1.48 1.53 1.56 1.53 1.52 1.50 1.48 1.45 1.44 1.43 1.43 1.42 1.41 1.40 1.43 1.46 1.51 1.67 1.71 1.66 1.64 1.60 1.56 1.49 1.45 1.42 1.42 1.41 1.39 1.35 1.34 1.35 1.37 1.36 1.29 1.23 1.13 1.08 1.06 1.00 0.99 0.94 0.94 0.93 0.92 0.92 0.93 0.92 0.90 0.87 0.85 0.83 0.79 0.79 0.78 0.77 0.78 0.78 0.79 0.80 0.82 0.83 0.85 0.87 0.89 0.91 0.93 0.92 0.87 0.84 0.86 0.86 0.88 0.89 0.91 0.95 0.97
1.20 1.23 1.23 1.28 1.30 1.35 1.38 1.41 1.51 1.55 1.57 1.55 1.53 1.51 1.48 1.47 1.45 1.43 1.42 1.41 1.41 1.42 1.46 1.50 1.61 1.70 1.67 1.62 1.61 1.57 1.53 1.47 1.44 1.42 1.37 1.36 1.31 1.27 1.26 1.27 1.27 1.22 1.15 1.10 1.07 1.02 1.00 0.96 0.96 0.94 0.89 0.88 0.88 0.88 0.93 0.90 0.88 0.84 0.82 0.78 0.76 0.74 0.72 0.72 0.73 0.73 0.75 0.76 0.76 0.77 0.77 0.78 0.80 0.81 0.82 0.84 0.80 0.75 0.75 0.76 0.77 0.77 0.76 0.76 0.77
1.25 1.25 1.24 1.28 1.32 1.36 1.39 1.44 1.48 1.55 1.56 1.55 1.53 1.51 1.50 1.46 1.43 1.42 1.41 1.42 1.43 1.46 1.51 1.59 1.68 1.65 1.61 1.59 1.57 1.52 1.52 1.48 1.46 1.43 1.36 1.28 1.23 1.19 1.18 1.17 1.16 1.13 1.09 1.07 1.03 1.02 0.98 0.93 0.93 0.93 0.91 0.86 0.85 0.84 0.87 0.88 0.85 0.81 0.77 0.72 0.70 0.68 0.67 0.69 0.71 0.71 0.71 0.70 0.70 0.69 0.68 0.68 0.68 0.68 0.68 0.68 0.66 0.61 0.56 0.55 0.54 0.53 0.54 0.56 0.58
1.28 1.30 1.31 1.31 1.32 1.37 1.41 1.47 1.52 1.54 1.53 1.52 1.51 1.50 1.48 1.45 1.43 1.42 1.43 1.44 1.48 1.52 1.56 1.63 1.64 1.61 1.59 1.53 1.51 1.51 1.49 1.49 1.45 1.40 1.33 1.27 1.23 1.19 1.17 1.16 1.14 1.12 1.08 1.04 1.01 1.01 0.98 0.95 0.88 0.89 0.86 0.83 0.79 0.78 0.80 0.83 0.80 0.74 0.69 0.66 0.66 0.65 0.65 0.65 0.65 0.65 0.65 0.64 0.62 0.62 0.62 0.61 0.60 0.57 0.53 0.50 0.47 0.41 0.37 0.36 0.35 0.35 0.35 0.38 0.40
1.32 1.35 1.36 1.38 1.40 1.42 1.48 1.51 1.52 1.50 1.50 1.53 1.52 1.51 1.48 1.45 1.43 1.42 1.43 1.45 1.49 1.55 1.58 1.61 1.60 1.59 1.55 1.51 1.49 1.49 1.47 1.44 1.39 1.38 1.31 1.25 1.21 1.19 1.15 1.14 1.13 1.09 1.05 1.01 0.99 0.96 0.94 0.91 0.85 0.80 0.81 0.76 0.71 0.71 0.75 0.75 0.71 0.68 0.65 0.63 0.62 0.61 0.61 0.62 0.60 0.58 0.57 0.57 0.56 0.53 0.50 0.46 0.43 0.41 0.39 0.38 0.37 0.34 0.31 0.31 0.29 0.28 0.28 0.29 0.31
1.35 1.36 1.37 1.42 1.44 1.49 1.53 1.54 1.57 1.56 1.54 1.51 1.51 1.49 1.47 1.40 1.35 1.40 1.39 1.42 1.48 1.51 1.56 1.58 1.59 1.56 1.53 1.48 1.47 1.45 1.45 1.40 1.36 1.35 1.29 1.24 1.19 1.17 1.14 1.15 1.12 1.08 1.03 0.98 0.96 0.92 0.88 0.83 0.77 0.73 0.67 0.65 0.66 0.68 0.73 0.72 0.69 0.67 0.65 0.64 0.61 0.58 0.57 0.54 0.52 0.50 0.48 0.47 0.44 0.42 0.39 0.38 0.37 0.36 0.35 0.35 0.35 0.33 0.31 0.30 0.30 0.28 0.28 0.26 0.27
1.34 1.35 1.38 1.43 1.45 1.50 1.51 1.52 1.57 1.61 1.57 1.51 1.50 1.48 1.38 1.35 1.37 1.36 1.34 1.42 1.48 1.52 1.53 1.54 1.55 1.53 1.49 1.45 1.43 1.41 1.41 1.37 1.33 1.30 1.25 1.22 1.20 1.19 1.17 1.14 1.12 1.06 1.01 0.96 0.94 0.90 0.83 0.75 0.69 0.65 0.59 0.55 0.56 0.66 0.71 0.74 0.64 0.61 0.66 0.65 0.64 0.65 0.58 0.51 0.47 0.44 0.39 0.38 0.38 0.36 0.36 0.35 0.34 0.34 0.35 0.35 0.34 0.34 0.32 0.31 0.31 0.30 0.29 0.28 0.27
1.28 1.35 1.37 1.40 1.51 1.52 1.50 1.52 1.57 1.57 1.58 1.55 1.53 1.52 1.44 1.37 1.35 1.38 1.43 1.48 1.50 1.48 1.46 1.49 1.49 1.47 1.45 1.43 1.40 1.39 1.35 1.30 1.29 1.29 1.26 1.24 1.20 1.18 1.14 1.09 1.05 1.00 0.96 0.93 0.88 0.80 0.73 0.68 0.64 0.56 0.58 0.53 0.50 0.59 0.65 0.68 0.59 0.55 0.51 0.54 0.62 0.66 0.61 0.52 0.39 0.34 0.35 0.34 0.34 0.34 0.35 0.34 0.34 0.34 0.35 0.35 0.34 0.33 0.31 0.31 0.30 0.30 0.30 0.29 0.28
1.31 1.34 1.41 1.45 1.50 1.51 1.52 1.52 1.55 1.58 1.56 1.54 1.52 1.46 1.45 1.48 1.48 1.50 1.51 1.50 1.55 1.53 1.50 1.51 1.48 1.42 1.42 1.41 1.40 1.36 1.29 1.27 1.27 1.27 1.25 1.23 1.19 1.14 1.08 1.04 0.99 0.94 0.87 0.81 0.74 0.67 0.66 0.63 0.60 0.56 0.52 0.52 0.49 0.51 0.55 0.59 0.51 0.57 0.59 0.53 0.45 0.44 0.53 0.40 0.40 0.36 0.32 0.33 0.32 0.33 0.34 0.33 0.33 0.35 0.34 0.34 0.32 0.32 0.30 0.30 0.30 0.30 0.29 0.29 0.29
1.27 1.37 1.46 1.47 1.48 1.51 1.51 1.51 1.59 1.61 1.54 1.54 1.51 1.48 1.50 1.55 1.59 1.58 1.58 1.54 1.48 1.51 1.50 1.50 1.44 1.40 1.36 1.38 1.37 1.33 1.29 1.27 1.27 1.25 1.22 1.17 1.13 1.07 1.05 0.99 0.93 0.88 0.78 0.67 0.62 0.59 0.61 0.60 0.58 0.55 0.53 0.44 0.42 0.42 0.46 0.49 0.51 0.51 0.35 0.37 0.34 0.38 0.29 0.28 0.34 0.33 0.34 0.30 0.30 0.31 0.33 0.33 0.34 0.35 0.34 0.31 0.30 0.31 0.31 0.29 0.29 0.29 0.29 0.29 0.29
1.28 1.33 1.41 1.45 1.45 1.46 1.50 1.57 1.53 1.58 1.57 1.58 1.50 1.47 1.49 1.52 1.55 1.54 1.54 1.51 1.50 1.46 1.42 1.39 1.39 1.37 1.33 1.31 1.30 1.30 1.30 1.28 1.26 1.22 1.16 1.10 1.07 1.04 0.99 0.93 0.86 0.77 0.68 0.62 0.58 0.58 0.58 0.59 0.57 0.53 0.50 0.44 0.40 0.42 0.41 0.42 0.40 0.43 0.39 0.31 0.26 0.21 0.19 0.24 0.33 0.28 0.32 0.27 0.27 0.29 0.31 0.32 0.32 0.32 0.30 0.27 0.28 0.28 0.29 0.27 0.27 0.28 0.28 0.28 0.28
1.30 1.46 1.46 1.45 1.49 1.54 1.54 1.61 1.57 1.55 1.56 1.54 1.46 1.43 1.46 1.47 1.43 1.38 1.34 1.36 1.32 1.32 1.32 1.30 1.29 1.28 1.25 1.30 1.29 1.30 1.29 1.24 1.20 1.16 1.11 1.07 1.02 0.99 0.94 0.86 0.74 0.67 0.64 0.60 0.59 0.58 0.57 0.55 0.54 0.51 0.47 0.48 0.44 0.39 0.34 0.36 0.34 0.32 0.30 0.30 0.31 0.23 0.22 0.22 0.31 0.22 0.28 0.27 0.29 0.28 0.29 0.30 0.30 0.29 0.26 0.25 0.23 0.24 0.26 0.26 0.26 0.26 0.27 0.27 0.28
1.32 1.45 1.45 1.47 1.49 1.49 1.48 1.56 1.56 1.55 1.56 1.49 1.43 1.46 1.48 1.50 1.45 1.43 1.42 1.35 1.27 1.31 1.39 1.36 1.31 1.30 1.31 1.28 1.26 1.29 1.25 1.19 1.16 1.15 1.10 1.04 1.00 0.94 0.86 0.75 0.69 0.65 0.63 0.60 0.58 0.57 0.56 0.54 0.54 0.51 0.48 0.48 0.47 0.37 0.34 0.33 0.32 0.30 0.29 0.28 0.26 0.27 0.30 0.27 0.20 0.25 0.23 0.25 0.25 0.25 0.27 0.29 0.27 0.25 0.23 0.23 0.23 0.24 0.25 0.27 0.26 0.27 0.27 0.27 0.28
1.35 1.42 1.46 1.44 1.43 1.49 1.51 1.50 1.52 1.50 1.48 1.43 1.41 1.49 1.50 1.50 1.48 1.42 1.43 1.37 1.34 1.33 1.33 1.30 1.31 1.31 1.29 1.26 1.24 1.24 1.20 1.17 1.13 1.10 1.06 1.00 0.94 0.85 0.77 0.71 0.66 0.64 0.61 0.59 0.57 0.57 0.55 0.54 0.53 0.50 0.48 0.45 0.42 0.36 0.33 0.34 0.28 0.27 0.32 0.29 0.27 0.27 0.27 0.26 0.28 0.22 0.20 0.22 0.22 0.29 0.26 0.25 0.25 0.23 0.23 0.24 0.24 0.24 0.24 0.25 0.25 0.25 0.25 0.26 0.26
1.38 1.38 1.41 1.42 1.46 1.46 1.46 1.50 1.48 1.46 1.42 1.40 1.44 1.51 1.53 1.51 1.48 1.46 1.39 1.41 1.42 1.36 1.33 1.31 1.28 1.29 1.26 1.24 1.21 1.21 1.18 1.14 1.11 1.06 1.01 0.96 0.88 0.80 0.73 0.68 0.65 0.62 0.60 0.58 0.57 0.56 0.53 0.50 0.48 0.45 0.41 0.39 0.38 0.36 0.33 0.31 0.31 0.29 0.29 0.28 0.28 0.27 0.27 0.28 0.29 0.27 0.22 0.23 0.21 0.20 0.19 0.24 0.24 0.20 0.22 0.24 0.23 0.23 0.23 0.23 0.24 0.24 0.24 0.25 0.25
1.38 1.42 1.44 1.44 1.42 1.43 1.44 1.44 1.39 1.37 1.40 1.41 1.46 1.50 1.52 1.49 1.47 1.43 1.39 1.36 1.37 1.34 1.31 1.26 1.24 1.25 1.22 1.18 1.17 1.15 1.10 1.07 1.05 1.01 0.96 0.90 0.83 0.77 0.71 0.67 0.64 0.62 0.59 0.57 0.56 0.54 0.52 0.49 0.46 0.42 0.40 0.37 0.36 0.35 0.32 0.31 0.30 0.30 0.30 0.29 0.27 0.29 0.29 0.28 0.27 0.27 0.26 0.24 0.18 0.16 0.16 0.15 0.15 0.20 0.21 0.21 0.23 0.24 0.23 0.23 0.23 0.23 0.23 0.24 0.25
1.35 1.41 1.38 1.38 1.40 1.38 1.39 1.35 1.34 1.36 1.40 1.44 1.46 1.47 1.49 1.47 1.47 1.45 1.37 1.29 1.31 1.32 1.27 1.23 1.22 1.20 1.17 1.15 1.13 1.11 1.06 1.01 0.99 0.96 0.91 0.87 0.81 0.76 0.71 0.67 0.65 0.62 0.59 0.58 0.55 0.52 0.50 0.47 0.44 0.41 0.38 0.36 0.34 0.33 0.32 0.32 0.30 0.29 0.28 0.28 0.27 0.26 0.25 0.24 0.25 0.26 0.24 0.19 0.16 0.14 0.15 0.14 0.12 0.13 0.15 0.18 0.20 0.21 0.22 0.22 0.21 0.22 0.23 0.23 0.24
Wind_Speed
3 3 2 3 2 2 2 1 1 1 2 3 3 4 5 6 7 8 8 8 8 8 8 8 8 8 8 8 8 9 9 9 9 9 10 10 9 9 9 9 8 8 8 7 7 7 7 7 7 7 6 6 7 7 6 6 6 7 7 7 7 8 8 8 8 8 8 8 8 8 8 8 8 7 7 7 7 7 7 7 7 7 8 8 8
3 3 3 3 3 3 3 2 1 1 1 2 2 3 4 5 6 7 7 7 7 7 8 7 7 7 7 8 8 8 8 8 8 9 9 9 9 9 8 8 8 8 7 7 7 7 7 6 7 6 6 6 7 7 7 6 6 7 7 7 7 7 8 8 8 8 8 8 8 7 7 7 7 7 7 6 7 7 7 7 7 8 8 8 9
2 2 3 3 3 3 3 3 2 1 0 1 2 3 3 4 5 6 7 7 7 7 7 7 6 6 7 7 7 7 7 8 8 8 9 9 9 9 8 8 8 7 7 7 7 6 6 6 6 6 6 6 7 7 7 7 7 8 8 8 8 8 8 8 7 7 7 7 7 6 6 7 6 6 6 6 6 7 7 7 7 8 8 9 9
2 2 3 3 3 3 3 3 3 2 1 0 1 2 3 4 5 6 6 6 6 7 7 6 6 6 6 6 7 7 7 7 7 8 8 8 8 8 8 8 8 7 7 7 7 6 6 6 6 6 6 6 6 7 7 8 8 8 8 8 8 8 8 8 7 7 7 6 6 6 6 6 6 6 6 6 6 7 7 7 8 8 9 9 10
2 2 3 3 3 4 4 4 4 3 2 1 1 2 2 3 4 5 6 6 6 6 6 6 6 5 6 6 6 6 6 7 7 7 7 8 8 8 8 8 8 7 7 7 6 6 5 5 5 6 6 6 6 7 7 8 8 8 8 8 8 8 8 8 8 7 7 6 6 6 6 6 6 6 6 6 7 7 7 8 8 8 9 10 10
2 2 3 4 4 4 4 5 4 4 3 2 2 2 2 3 4 4 5 5 5 5 5 6 6 5 5 5 6 6 6 6 6 7 7 7 8 8 8 8 8 7 7 7 6 6 5 5 5 5 5 6 6 7 7 8 8 8 7 7 7 7 7 7 7 7 6 6 6 5 5 6 6 6 6 7 7 7 7 8 8 9 10 10 11
3 3 3 4 4 5 5 5 5 4 4 3 2 2 3 3 3 4 4 5 5 5 5 5 5 5 5 5 5 5 6 6 6 6 6 7 7 8 8 8 7 7 7 6 6 6 5 5 5 5 5 6 6 7 7 7 7 7 7 7 6 6 6 6 6 6 5 5 5 5 5 5 6 6 6 7 7 8 8 8 9 10 10 11 12
4 4 4 4 5 5 5 6 5 5 5 4 3 3 3 3 3 4 4 4 4 4 4 5 5 5 5 4 5 5 5 6 6 6 6 7 7 8 8 7 7 7 6 6 5 5 5 4 5 5 5 6 6 6 6 6 6 6 6 6 6 5 5 5 4 4 4 4 4 5 5 5 6 6 7 7 8 8 9 9 10 11 11 12 13
5 5 4 5 5 6 6 6 6 6 6 5 5 4 3 3 3 4 4 3 3 3 3 4 5 5 4 4 4 5 5 5 6 6 6 7 7 7 7 7 6 6 6 6 5 4 4 4 5 5 5 6 6 6 6 5 5 5 5 5 5 4 4 4 4 4 4 4 4 5 5 5 6 6 7 7 8 9 9 10 11 12 12 13 13
5 5 6 6 6 6 7 7 7 7 7 6 6 5 4 4 4 4 3 3 2 3 3 3 4 4 4 4 4 4 5 5 5 6 6 7 7 7 7 6 6 6 6 5 5 4 4 4 4 5 5 5 5 5 5 5 4 4 4 4 4 4 4 3 3 3 3 4 4 5 5 6 6 7 7 8 9 9 10 11 12 12 13 13 14
6 6 6 7 7 7 7 7 8 8 8 7 6 6 5 4 4 4 3 2 2 2 2 2 3 3 4 3 3 4 4 5 5 6 6 6 7 7 6 6 6 6 6 5 4 4 3 4 4 4 4 4 4 4 4 4 4 3 3 3 3 3 3 3 3 3 3 3 4 5 5 6 7 7 8 9 9 10 11 12 12 13 13 14 14
7 7 7 7 7 8 8 8 8 9 9 8 7 6 6 5 5 4 3 2 1 2 2 2 2 3 3 3 3 4 4 5 5 5 6 6 6 6 6 6 5 5 5 5 4 3 3 3 4 4 4 4 4 4 3 3 3 3 3 3 3 3 3 3 3 3 3 4 4 5 6 7 7 8 9 10 10 11 12 13 13 14 14 15 15
7 7 8 8 8 8 8 9 9 9 9 9 8 7 6 6 5 4 3 2 1 1 1 1 2 3 3 3 3 3 4 4 5 5 6 6 6 6 5 5 5 5 5 5 4 3 3 3 3 3 3 3 3 3 3 2 2 2 2 3 3 3 3 3 3 3 4 4 5 6 7 7 8 9 10 10 11 12 13 14 14 15 15 16 16
8 8 8 9 9 8 9 9 9 9 9 9 8 8 7 6 6 5 3 2 2 1 1 1 2 2 3 3 3 3 4 4 5 5 5 5 5 5 5 5 4 4 4 4 4 3 2 2 2 3 3 3 2 2 2 2 2 2 2 3 3 3 4 4 4 4 4 5 6 7 7 8 9 9 10 11 12 13 14 15 15 16 16 17 17
9 8 9 9 9 8 9 8 9 9 9 9 8 8 7 6 6 5 4 3 2 2 2 2 2 2 3 3 3 3 3 4 4 5 5 5 5 5 4 4 4 4 4 4 3 2 2 1 2 2 2 2 2 2 2 1 2 2 2 3 3 4 4 5 5 5 5 6 7 8 8 9 9 10 11 12 13 14 15 15 16 17 17 18 18
9 9 9 9 9 9 8 8 8 9 9 9 8 8 7 7 6 5 4 4 3 2 2 2 2 2 3 3 3 3 3 3 4 5 5 5 5 4 4 4 4 3 3 3 3 2 1 1 1 1 1 1 1 1 1 1 2 2 2 3 4 4 5 5 6 6 6 7 8 9 9 10 11 11 13 13 14 15 16 16 17 17 18 19 19
9 9 9 9 9 9 9 8 8 9 9 9 8 8 7 7 6 5 5 4 3 3 3 3 2 2 2 3 3 3 3 3 4 4 5 5 4 4 4 3 3 3 3 3 2 2 0 0 1 1 1 0 0 1 1 2 2 2 2 3 4 5 5 6 6 7 8 8 9 10 10 11 12 13 14 15 15 16 16 17 18 18 19 19 19
10 10 10 10 10 10 9 8 8 9 9 9 9 8 8 7 6 6 5 5 4 3 3 3 2 2 2 2 3 3 3 3 3 4 4 5 4 4 3 3 3 3 3 2 2 1 1 1 1 2 2 1 1 1 2 2 2 3 3 4 4 5 6 6 7 8 9 9 10 11 12 12 13 14 15 16 16 17 17 18 19 19 19 20 20
11 11 10 10 11 11 10 9 9 9 10 9 9 8 8 7 6 6 6 5 4 4 4 3 3 3 3 3 3 3 3 3 3 4 4 5 5 4 4 4 3 3 3 2 2 2 1 1 2 2 2 3 3 3 3 3 3 4 4 5 5 6 7 7 8 9 10 10 11 12 13 14 14 15 16 17 17 18 18 19 19 20 20 20 20
12 11 11 11 11 11 10 9 9 10 10 10 9 9 8 7 7 6 6 6 5 5 4 4 3 3 3 3 3 3 3 3 3 4 4 4 5 4 4 4 4 3 3 3 2 2 2 2 2 3 3 3 4 4 4 4 4 4 5 5 6 7 8 8 9 10 11 11 12 13 14 14 15 16 17 17 18 18 19 20 20 20 20 20 20
12 12 12 11 11 11 10 10 10 10 10 10 9 8 8 7 7 7 6 6 6 5 5 4 4 4 3 3 3 3 3 4 4 4 4 4 4 4 4 4 4 4 4 3 3 3 3 2 3 3 3 4 4 4 5 5 5 5 6 7 7 8 9 9 10 11 11 12 13 14 15 16 16 17 17 18 18 19 20 20 20 20 20 20 20
13 13 12 11 11 11 11 11 11 11 11 10 9 9 8 8 7 7 7 7 6 6 6 5 5 4 4 4 4 4 4 4 4 5 5 5 5 5 5 5 5 5 4 4 4 3 3 3 3 3 4 4 4 4 5 5 6 6 7 8 8 9 10 10 11 12 12 13 14 15 16 17 17 18 18 18 19 20 20 20 20 20 20 20 20
14 13 12 11 11 11 11 12 12 12 11 10 9 9 8 8 8 7 7 7 7 7 6 6 5 5 5 4 4 4 4 5 5 5 6 6 6 6 5 5 5 5 5 4 4 4 3 4 4 4 4 4 4 5 5 5 6 7 7 8 9 10 11 11 12 13 13 14 15 16 17 17 18 18 19 19 19 20 20 20 20 20 21 21 21
14 13 12 11 11 12 12 12 12 12 11 10 9 9 8 8 8 8 8 8 8 7 7 6 5 5 5 5 5 5 5 6 6 6 6 6 6 6 6 5 5 5 5 5 5 4 4 4 4 4 4 5 5 5 5 6 7 7 8 9 10 10 11 12 12 13 14 15 15 17 18 18 19 19 19 19 19 19 20 20 20 21 21 21 21
14 13 12 11 11 12 12 12 12 12 11 10 9 9 9 9 8 8 8 8 8 8 7 6 6 6 6 6 6 6 6 6 7 7 7 7 7 6 6 6 5 5 5 5 5 5 4 4 4 5 5 5 5 6 6 7 8 8 9 10 10 11 12 12 13 13 14 15 16 18 18 19 19 19 19 19 19 19 20 20 21 21 21 21 20
14 13 12 11 10 9 10 11 11 11 11 10 10 9 9 9 9 8 8 8 8 8 7 7 6 6 6 6 6 6 7 7 7 7 7 8 7 7 6 6 6 5 5 5 5 5 5 5 5 5 5 6 6 7 7 8 8 9 10 10 11 12 12 13 13 14 15 16 17 18 18 19 19 19 19 19 19 19 19 20 20 20 20 20 20
14 13 12 12 11 10 9 9 10 10 11 10 10 9 10 10 9 9 8 8 8 8 8 8 7 7 7 7 7 7 7 7 7 7 8 8 8 7 6 6 6 6 6 6 5 5 5 5 5 5 6 6 6 7 8 8 9 9 10 10 11 12 13 13 14 15 15 16 17 18 18 18 19 18 19 19 19 19 19 19 19 20 20 20 20
14 14 13 13 14 13 11 11 11 11 11 11 10 9 10 10 10 9 8 8 8 8 8 8 8 7 7 7 7 7 7 7 7 8 8 8 8 7 7 6 6 6 6 6 6 6 6 6 6 6 6 6 7 7 8 8 9 9 10 11 12 12 13 14 14 15 15 16 16 17 18 18 18 18 18 18 19 19 19 19 19 19 20 20 20
14 14 14 15 15 15 13 12 12 12 12 11 10 9 10 10 10 9 9 9 8 8 8 8 8 8 8 8 7 7 7 7 8 8 8 8 8 8 7 7 7 6 6 6 6 6 6 7 7 7 7 7 7 7 8 9 9 10 10 11 12 13 13 14 14 14 15 15 16 16 17 17 17 18 18 18 18 18 19 19 19 19 19 19 20
15 15 15 15 15 15 15 13 13 13 12 12 11 10 10 10 10 9 9 9 8 8 8 9 9 8 8 8 8 8 8 7 8 8 8 8 8 8 7 7 7 7 7 7 7 7 7 7 7 7 7 7 7 8 8 9 9 10 11 11 12 12 13 13 14 14 14 15 15 16 16 17 17 18 18 18 18 18 18 18 19 19 19 19 20
15 15 15 15 16 16 15 14 14 13 13 12 11 10 10 11 10 9 9 9 9 9 9 9 9 8 8 8 8 8 8 7 8 8 8 8 8 8 7 7 7 7 7 7 7 7 7 7 7 7 7 7 7 8 9 9 10 10 11 11 11 12 12 13 13 13 14 14 15 15 16 17 17 17 18 18 18 18 19 19 19 19 19 19 20
16 16 16 16 16 16 16 15 15 14 13 13 12 11 11 11 11 10 10 9 9 9 9 9 9 9 8 8 8 8 8 8 8 8 8 8 7 7 7 7 7 7 7 7 6 7 7 7 7 7 7 8 8 8 8 9 10 10 10 10 11 12 12 13 13 13 14 14 15 15 16 17 17 17 18 18 19 19 19 20 20 20 20 20 20
16 16 16 16 17 17 17 16 16 15 14 13 12 12 12 11 11 11 10 10 10 10 10 10 9 9 8 8 8 8 8 8 8 7 8 8 7 7 7 7 6 6 6 6 6 7 7 7 7 8 8 8 8 8 8 9 9 9 10 10 11 11 12 12 13 13 14 14 15 16 16 17 17 18 18 19 19 20 20 20 20 20 20 20 21
16 16 17 17 17 17 17 17 16 16 15 14 13 13 12 12 11 11 11 11 11 10 10 10 10 9 9 9 8 8 8 7 7 7 7 7 7 7 7 7 6 6 6 6 7 7 7 7 8 8 8 8 8 8 8 9 9 9 10 10 11 11 12 12 13 14 14 15 16 16 17 18 18 18 19 19 20 20 20 20 20 21 21 21 22
17 17 17 17 17 18 18 17 17 16 15 15 14 13 13 12 12 12 12 11 11 10 10 10 10 10 9 9 8 8 8 7 7 6 7 7 6 7 7 7 7 6 6 7 7 7 7 7 8 8 8 8 8 8 8 9 9 9 10 10 11 12 12 13 13 14 15 16 16 17 18 18 19 19 19 20 20 20 20 20 21 21 22 22 22
17 17 17 17 17 18 18 18 17 17 16 15 14 14 13 13 13 13 12 11 11 10 10 10 9 9 9 9 8 8 7 7 6 6 6 6 6 7 7 7 7 6 6 7 7 7 7 7 7 8 8 8 8 8 9 9 9 9 10 11 11 12 12 13 14 14 15 16 17 18 18 19 19 20 20 20 20 21 21 21 21 22 22 23 23
18 18 18 17 17 18 18 18 18 17 16 16 15 14 14 13 13 13 12 11 11 11 10 10 9 9 9 8 8 8 7 7 7 7 6 6 6 6 6 6 6 6 6 6 7 7 7 7 7 8 8 9 9 9 9 9 9 9 10 11 11 12 13 13 14 15 16 17 18 18 19 20 20 20 21 21 21 21 21 21 22 22 23 23 23
18 18 18 17 17 18 18 18 18 17 16 16 15 14 14 14 14 13 12 12 11 11 10 10 10 9 8 8 8 8 8 7 7 7 7 6 6 6 6 6 6 6 6 6 6 6 7 7 7 8 9 9 9 9 9 9 9 9 10 11 11 12 13 14 15 16 17 17 18 19 20 20 21 21 21 21 21 21 22 22 23 23 23 24 24
18 18 18 17 17 18 18 18 18 17 16 15 15 14 14 13 13 13 12 12 11 11 10 10 10 9 9 8 8 8 8 7 7 7 7 7 6 6 6 6 6 6 6 6 6 7 7 7 8 8 9 9 9 9 9 9 9 10 10 11 11 12 13 14 15 16 17 18 19 20 20 21 21 21 21 21 21 22 22 23 23 23 24 24 24
19 19 18 18 18 18 18 18 18 16 16 15 15 14 13 13 13 12 12 12 11 11 11 10 10 9 9 9 9 8 8 7 7 7 7 7 6 6 6 6 6 6 6 6 7 7 7 7 7 8 8 9 9 9 9 9 9 10 10 11 12 13 14 15 16 17 18 19 19 20 20 20 21 21 21 21 21 22 23 23 23 24 24 24 24
19 19 19 18 18 18 18 18 17 16 15 14 14 14 14 13 13 13 12 12 12 11 11 10 10 9 9 9 9 8 8 7 7 7 7 7 6 6 6 6 6 6 6 6 7 7 7 7 7 8 9 9 10 10 10 10 10 11 12 12 13 14 15 16 17 18 18 19 19 20 20 20 21 21 22 22 22 23 23 23 24 24 24 24 25
19 19 19 18 18 18 18 18 17 17 16 15 15 14 14 14 13 13 12 12 12 11 11 10 10 10 10 9 9 8 8 7 7 7 7 6 6 6 6 6 6 6 6 6 6 7 7 7 8 9 9 10 11 11 11 11 12 13 13 14 14 15 16 17 18 18 18 19 19 20 20 21 21 22 22 22 22 23 23 24 24 24 25 25 26
19 19 19 19 19 18 17 17 17 18 17 16 16 15 14 14 13 13 13 12 12 12 11 11 10 10 10 9 9 8 8 7 7 7 6 6 6 6 6 5 5 5 5 6 6 7 7 8 9 9 10 10 11 11 12 13 13 14 14 15 15 16 17 17 18 18 19 19 20 20 21 21 22 22 22 23 23 23 24 24 25 25 26 26 27
19 19 20 21 20 20 19 18 18 17 16 16 15 15 14 14 13 14 13 13 12 12 11 11 10 10 10 9 9 8 8 8 7 7 7 7 6 6 6 5 5 5 5 6 6 7 8 8 9 10 10 11 11 12 12 13 13 14 15 15 16 16 17 18 18 19 20 20 21 21 21 22 22 22 23 23 24 24 24 25 25 26 26 27 28
19 20 20 21 21 20 19 18 17 15 14 15 15 15 15 14 14 14 14 13 12 12 12 11 10 10 10 9 9 8 8 7 7 7 7 7 6 6 6 5 5 5 5 6 6 7 8 9 10 10 10 11 11 12 12 13 13 14 15 15 16 17 18 18 18 19 20 20 21 22 22 22 23 23 23 23 24 24 25 25 26 27 27 28 29
19 19 19 19 19 18 17 16 16 15 14 15 15 15 15 15 15 15 14 14 13 13 12 11 10 10 10 9 9 8 7 7 7 7 7 7 6 6 5 5 5 5 6 6 7 8 8 9 10 10 10 11 11 12 12 13 13 14 14 15 16 17 17 18 18 19 20 21 22 22 22 23 23 23 23 23 24 24 25 26 27 28 29 29 30
19 19 18 18 17 16 16 16 16 15 15 15 15 16 15 16 16 15 15 14 13 13 13 12 11 10 10 9 8 8 7 7 7 7 7 7 6 5 5 5 5 5 6 7 8 8 9 9 10 10 11 11 12 12 13 13 14 14 14 15 15 16 17 18 18 19 20 21 22 22 22 23 23 23 23 24 25 25 26 27 28 29 30 31 31
19 18 17 16 16 16 16 16 15 15 15 15 16 16 15 15 16 15 14 14 13 13 13 12 11 11 10 9 8 8 7 7 7 7 6 6 5 5 5 5 5 6 7 7 8 9 9 10 10 11 11 11 12 12 13 13 14 14 14 15 15 16 17 17 18 19 20 20 22 23 23 23 23 23 24 25 25 27 27 28 29 30 31 31 32
19 18 17 16 16 16 16 16 15 15 15 15 16 15 15 15 15 14 13 13 14 13 12 12 11 10 9 9 8 8 7 7 7 7 6 6 5 5 5 5 6 7 7 8 8 9 9 10 10 11 11 11 12 12 12 13 14 14 15 15 16 16 17 18 19 20 20 20 21 22 23 23 23 24 25 25 26 27 28 29 30 31 31 32 32
18 17 16 16 16 16 16 16 15 15 15 15 15 15 15 15 15 14 13 13 14 14 12 11 11 10 10 9 8 8 7 7 7 7 6 6 5 5 5 6 7 7 8 8 8 9 9 10 10 11 11 11 12 12 12 13 14 14 15 15 16 17 18 19 19 20 20 20 21 22 23 24 24 25 26 27 27 28 29 30 30 31 32 32 33
18 17 16 17 16 16 16 16 16 16 15 15 15 15 15 15 15 14 13 14 14 14 12 11 11 10 10 10 9 8 8 8 8 7 7 6 6 6 6 7 7 7 7 8 8 9 9 10 10 11 11 12 12 13 13 13 14 14 15 16 17 17 18 19 20 20 20 20 21 22 23 25 25 26 27 27 28 28 29 30 31 32 32 33 34
Wind_Direction
259 238 233 232 242 239 235 244 290 352 30 46 49 43 39 38 36 35 34 35 34 35 40 45 46 48 49 50 50 50 51 51 50 48 46 46 46 46 46 46 44 44 43 40 41 46 49 55 65 72 74 72 70 70 78 84 83 81 81 79 78 78 77 77 78 81 83 83 81 79 74 70 68 63 59 56 50 44 38 33 27 22 18 15 11
242 236 236 234 242 241 238 241 263 300 27 47 49 39 35 33 33 30 29 31 31 35 38 42 44 46 48 48 48 48 48 49 48 46 44 43 43 42 42 41 40 40 37 35 39 46 49 56 67 74 75 74 71 71 79 85 86 86 84 81 79 77 76 76 77 80 81 80 78 75 69 64 61 55 51 46 40 32 27 23 18 14 12 9 6
234 234 240 236 240 243 237 237 245 250 299 45 41 31 28 28 27 25 25 26 30 35 37 39 41 43 46 46 46 46 45 46 44 42 42 40 38 37 36 35 34 33 30 30 37 45 49 57 68 75 76 76 75 75 80 86 88 88 85 82 79 76 75 76 77 79 78 77 73 68 63 58 53 47 41 36 29 22 18 15 13 11 8 5 1
233 231 241 239 240 240 235 232 233 232 238 313 16 15 15 20 20 19 20 21 29 36 35 37 38 40 44 45 44 43 41 41 40 38 37 36 34 33 32 30 29 27 26 31 38 44 50 59 70 76 78 78 79 82 85 87 89 88 86 83 80 78 76 76 75 75 73 70 64 59 54 49 43 38 33 26 20 15 11 9 8 7 4 1 358
235 230 240 245 245 240 235 229 228 228 236 264 327 353 359 9 12 14 14 16 27 34 34 35 36 37 41 43 42 40 37 36 35 34 33 32 31 29 27 26 24 22 27 34 37 44 53 63 73 79 82 83 85 87 89 90 91 90 87 83 80 77 76 74 71 69 67 63 57 51 46 39 33 29 25 17 11 8 5 4 2 0 358 356 355
230 233 240 250 250 241 236 229 228 228 238 258 294 325 338 353 3 6 4 11 24 31 32 34 34 35 37 41 39 37 34 31 30 30 28 27 26 24 23 22 22 24 30 35 39 47 56 66 76 82 86 87 90 93 94 93 92 90 85 82 77 75 75 71 66 63 62 58 52 46 39 31 25 20 15 9 4 1 359 358 356 354 353 352 351
233 240 242 254 253 243 239 232 229 229 241 253 277 300 315 339 352 352 353 6 20 26 30 32 34 34 34 38 36 34 30 28 27 25 22 21 22 22 21 22 24 26 28 33 40 47 57 69 78 86 89 92 95 98 97 94 93 89 84 79 74 71 69 64 59 56 54 49 42 35 29 21 17 13 8 4 358 356 354 353 351 350 349 348 348
249 252 249 257 255 245 241 235 231 232 241 251 267 283 300 323 336 336 341 359 13 21 26 30 33 33 31 33 33 31 27 25 25 21 19 19 20 19 19 22 24 25 26 30 37 46 59 72 81 88 92 96 100 101 99 96 94 89 82 75 69 65 60 56 52 47 42 34 27 20 15 11 8 7 4 0 356 353 350 349 348 347 346 345 344
257 257 258 262 258 249 245 238 234 235 240 248 261 274 289 303 314 317 327 348 4 15 22 28 31 30 28 27 29 27 23 22 21 17 16 17 18 17 18 23 26 27 28 32 38 46 61 75 84 91 96 100 104 105 102 99 94 88 81 71 62 57 52 47 43 35 29 21 13 7 3 1 360 360 359 356 352 350 347 345 344 343 342 341 340
259 259 262 265 263 256 251 244 237 236 240 247 257 267 277 287 295 302 313 333 353 9 18 25 27 26 25 23 22 21 19 18 16 13 14 16 17 17 20 24 27 28 30 34 42 48 62 80 88 94 101 106 109 108 105 101 95 87 78 67 57 50 44 38 31 25 18 10 2 358 355 353 351 351 351 350 347 346 344 343 341 340 338 337 336
262 261 263 267 267 263 257 249 241 237 240 246 253 261 268 276 284 291 299 312 339 4 10 17 21 19 20 17 13 12 12 12 11 10 13 17 17 18 20 23 26 28 31 35 44 51 65 83 90 98 106 110 112 110 106 100 92 84 73 59 49 40 34 25 16 10 4 356 351 348 346 345 343 343 342 342 342 340 339 338 336 335 334 333 332
265 264 265 269 268 265 260 253 244 238 239 244 249 255 262 270 277 282 286 294 321 350 357 1 8 11 13 7 360 1 3 6 7 7 10 14 15 17 19 22 26 29 32 35 44 54 69 86 93 100 107 112 111 108 101 92 81 71 62 47 37 29 20 8 358 353 347 341 340 339 337 336 336 337 335 335 335 335 334 333 332 331 330 329 329
267 268 266 267 267 264 259 255 246 238 237 242 246 251 258 264 270 272 274 277 294 324 331 331 348 1 3 356 349 352 357 1 4 5 6 9 12 15 19 21 24 28 31 34 42 56 73 91 96 101 107 110 108 102 92 77 63 52 47 36 29 21 9 358 348 338 332 330 330 330 330 330 330 331 330 330 330 330 329 328 328 328 327 327 327
269 270 267 266 267 262 258 255 244 237 236 240 244 249 255 259 263 265 265 261 264 287 292 297 324 350 353 347 342 345 353 359 2 3 3 6 10 13 16 20 21 23 28 31 37 53 75 95 101 104 108 108 104 95 82 64 45 34 32 25 18 11 3 355 346 333 324 322 323 324 324 325 326 325 326 326 326 326 326 326 326 326 326 325 325
270 269 266 268 267 260 258 254 242 236 235 239 243 247 251 253 259 259 255 247 246 263 270 279 304 339 344 338 336 340 351 357 359 360 0 3 6 9 13 17 18 17 21 25 32 46 72 97 107 110 110 106 97 81 66 47 31 21 16 11 4 359 355 351 345 335 325 319 319 320 320 321 321 320 322 323 323 324 325 325 324 324 324 323 323
268 267 268 268 265 261 258 251 241 235 235 238 240 244 246 249 255 251 245 239 239 253 260 270 292 326 334 329 328 333 344 352 354 355 357 359 1 5 8 11 12 11 13 17 21 31 59 100 122 128 122 110 87 58 35 18 12 6 358 353 351 347 344 342 341 336 329 322 319 319 318 318 318 318 319 321 321 322 323 322 322 322 322 322 322
264 266 269 267 262 262 258 249 240 233 233 235 237 239 242 246 247 243 240 236 238 247 252 262 284 310 320 320 320 324 333 344 350 352 354 357 358 0 3 4 3 3 4 7 10 10 1 242 235 228 212 200 332 355 351 352 350 345 338 335 337 336 334 333 334 333 330 324 321 318 316 316 316 316 317 318 319 319 319 320 320 320 321 321 321
263 265 268 266 262 262 256 246 236 231 231 232 234 238 240 241 240 239 237 235 237 241 247 258 275 295 306 308 309 312 322 336 345 349 352 355 356 355 355 354 354 352 348 349 352 350 321 262 252 251 251 258 272 291 309 323 327 327 324 323 326 328 327 326 327 327 326 323 320 317 315 315 315 315 316 317 317 317 317 318 318 319 319 320 320
262 265 267 267 262 259 252 242 233 229 228 230 234 238 239 237 236 237 234 234 235 239 246 256 268 282 292 294 297 303 314 329 339 344 347 351 352 349 346 343 342 341 332 328 327 324 310 272 259 257 258 266 274 284 295 302 310 314 314 316 318 319 321 321 322 322 322 321 319 317 316 314 313 313 314 315 316 316 316 316 317 318 318 318 318
264 266 268 268 261 255 249 239 230 227 227 229 233 237 238 236 235 233 232 234 235 240 246 252 262 271 281 285 290 297 308 321 331 337 340 343 345 343 340 335 332 331 323 314 306 296 290 277 266 262 263 269 277 284 291 294 300 305 305 308 311 312 314 316 317 318 319 318 317 317 315 314 312 312 312 313 314 314 315 315 315 316 317 318 317
265 266 267 266 259 253 246 237 229 226 226 228 232 235 235 235 234 231 231 234 235 239 244 250 258 265 273 277 283 290 298 310 321 327 329 331 332 333 333 330 326 322 316 307 297 287 278 271 268 267 268 272 277 284 289 295 300 302 302 304 307 309 311 313 313 314 315 315 315 315 315 313 312 311 311 311 312 313 313 314 314 315 316 316 317
262 263 264 263 257 252 244 235 227 225 225 227 232 233 233 233 233 232 233 235 236 238 241 247 256 263 267 268 274 280 288 298 308 316 320 321 320 320 322 323 321 317 310 301 294 287 277 270 268 268 271 274 278 282 287 292 298 302 303 304 306 308 310 310 311 312 313 314 314 315 314 313 312 312 312 311 312 313 314 314 315 315 314 314 316
259 260 261 259 255 249 241 231 225 222 223 227 230 229 230 232 234 235 236 237 237 237 239 244 254 262 262 263 267 273 283 291 299 306 310 313 314 312 312 312 312 313 308 298 291 285 278 273 271 270 271 275 279 281 285 288 294 300 304 307 308 310 310 310 312 312 313 314 315 315 315 314 314 314 313 313 313 314 314 314 315 315 314 314 315
255 256 258 257 251 245 238 229 223 220 221 226 228 228 230 234 238 239 239 239 237 236 237 243 252 258 259 261 265 273 283 289 294 299 302 305 307 305 302 302 302 304 303 296 289 283 276 272 271 272 273 277 281 283 287 290 295 301 306 308 310 311 311 312 313 313 314 314 316 317 317 317 316 315 315 315 315 315 315 315 316 316 315 315 315
252 252 255 254 245 241 234 225 221 218 220 225 226 227 230 235 239 242 242 241 237 233 235 242 249 255 258 261 266 275 283 288 292 295 298 301 302 299 293 294 296 296 296 293 289 285 277 271 270 272 275 279 283 287 291 294 298 302 306 308 309 310 311 313 313 314 314 314 317 318 318 318 318 316 316 316 316 317 317 317 317 317 317 316 315
249 249 250 245 233 228 222 216 217 217 220 224 225 228 230 234 239 240 243 242 236 232 234 240 245 251 257 262 268 274 281 287 292 294 297 299 299 296 288 287 290 290 289 288 286 284 280 275 273 274 278 283 287 291 294 296 299 302 306 309 310 311 312 313 313 314 314 314 317 319 319 320 319 319 318 319 319 319 319 318 318 318 318 317 316
246 246 243 236 224 220 218 213 216 217 219 222 226 231 231 233 236 238 241 241 236 233 236 239 243 252 258 264 269 273 279 284 289 292 295 298 297 293 286 281 282 283 283 283 283 282 280 278 278 278 281 285 289 292 295 297 300 304 308 311 312 313 313 314 314 314 314 315 319 320 321 321 321 321 321 321 321 320 320 320 320 320 319 319 318
245 242 239 233 226 227 229 224 222 221 221 225 230 234 233 233 235 236 238 238 237 237 238 239 244 254 259 264 269 272 277 281 285 289 292 295 294 290 283 276 275 276 278 279 280 281 280 278 279 280 282 285 289 293 296 299 303 306 310 312 313 314 315 315 315 315 315 317 321 323 324 324 325 325 324 324 323 322 322 322 322 322 321 321 320
242 238 236 233 229 229 231 229 227 226 228 233 236 236 236 235 235 235 234 235 238 240 240 240 246 255 260 265 269 272 276 280 284 287 290 292 291 289 283 274 270 271 274 275 277 279 279 279 279 281 283 287 291 294 298 300 304 307 310 312 314 315 316 316 317 318 318 319 322 326 327 327 328 328 327 326 326 325 325 325 325 325 325 324 323
241 237 234 231 228 228 229 228 228 228 232 237 238 237 237 236 234 232 231 233 238 241 242 244 248 255 261 265 269 273 276 280 284 286 289 290 289 287 282 275 269 269 272 273 274 276 277 279 280 282 285 288 291 295 298 301 306 309 312 314 316 317 318 319 320 321 322 321 323 326 328 329 329 329 329 328 327 327 326 326 326 326 326 326 326
241 236 233 230 228 228 228 227 227 227 232 237 238 237 234 232 230 227 229 234 239 242 246 247 249 254 260 265 270 274 276 279 283 285 286 289 287 283 281 277 272 269 268 270 273 276 278 281 284 286 288 290 293 297 301 304 308 311 314 316 318 319 321 322 323 323 324 324 324 326 328 330 331 330 330 329 328 327 326 325 325 324 323 324 325
240 236 233 230 228 227 227 227 227 228 231 235 235 233 231 228 227 227 230 235 240 243 248 249 250 254 259 265 270 272 276 278 280 282 283 284 283 280 279 277 274 269 266 269 274 278 281 283 287 289 291 294 298 302 305 307 308 312 315 317 319 321 322 324 325 325 326 327 327 327 328 329 331 331 331 329 328 327 326 325 324 323 322 323 324
240 236 232 230 228 228 227 227 228 229 230 232 231 229 227 225 225 226 229 234 240 245 248 250 252 255 258 264 269 270 273 274 277 282 283 282 280 278 277 275 272 269 268 272 277 281 282 284 287 289 292 296 299 302 305 307 308 312 315 317 320 322 324 326 326 327 328 329 329 329 329 328 328 328 329 329 327 326 325 324 323 323 322 322 322
240 234 231 230 228 228 228 228 228 228 228 229 227 226 226 224 224 226 230 235 241 245 248 250 253 254 257 264 267 266 267 269 275 281 281 280 279 278 276 272 270 270 273 278 282 283 283 284 286 289 292 295 299 302 304 307 309 311 315 318 322 324 325 326 327 328 329 330 330 330 329 327 326 325 326 326 327 326 325 324 323 322 322 322 322
236 231 229 228 227 227 227 227 226 226 226 226 224 224 225 224 225 227 231 236 241 244 248 250 252 254 258 263 262 260 261 265 271 277 278 277 278 280 277 271 268 271 277 283 286 285 285 285 287 289 292 296 300 303 304 306 308 312 316 319 322 323 324 326 327 328 329 330 329 329 328 327 326 325 324 325 326 326 325 323 323 322 321 320 320
232 229 227 226 225 225 225 225 225 225 225 224 223 223 224 224 226 228 232 236 240 243 247 249 251 253 256 258 255 254 256 260 266 274 278 278 278 279 277 272 269 273 280 285 287 287 287 287 289 291 293 296 299 301 303 305 309 313 316 318 320 322 323 325 326 327 328 328 328 328 328 328 327 326 325 325 325 325 324 323 322 321 321 320 319
230 229 226 224 224 225 225 226 226 226 226 224 223 223 223 224 226 229 233 236 239 241 244 246 248 251 251 250 248 249 253 257 264 273 279 281 280 279 276 272 271 275 281 285 286 288 289 289 292 294 294 296 298 301 303 305 309 312 315 318 320 321 322 324 325 327 327 327 327 327 328 328 327 327 326 326 325 324 323 323 322 321 321 320 319
230 229 227 225 224 226 227 228 226 225 226 223 220 220 221 223 226 229 233 234 237 239 242 244 245 246 246 246 245 247 251 257 264 273 279 281 280 277 273 272 273 276 279 282 284 288 291 293 294 296 298 299 300 302 303 306 309 312 315 318 320 321 323 325 326 326 326 326 327 327 327 327 328 327 327 326 325 325 324 323 323 322 322 321 320
230 229 228 227 226 227 227 227 224 222 222 221 217 217 219 221 224 227 231 233 235 238 241 242 242 242 244 245 244 245 250 257 265 272 277 278 276 273 270 270 272 276 278 281 285 290 294 296 297 300 301 303 303 302 303 305 308 311 315 318 320 322 324 325 325 325 326 326 327 327 327 327 327 328 327 327 326 326 325 325 324 323 323 322 322
231 229 228 228 227 226 226 226 223 218 218 219 217 216 218 220 222 226 229 231 234 238 240 241 241 242 242 242 242 244 249 255 263 270 274 273 271 269 268 270 274 276 279 282 288 292 295 297 299 301 302 304 305 303 301 302 306 309 312 314 318 322 325 325 325 325 326 327 327 326 326 326 327 327 328 327 326 326 326 326 325 325 324 323 322
232 230 228 229 228 227 228 228 224 218 218 221 220 218 219 222 224 226 228 230 233 236 238 240 241 240 238 238 240 243 248 255 263 268 270 269 268 268 270 273 275 275 278 283 289 293 296 298 301 303 305 307 308 304 300 300 302 305 306 308 311 316 321 324 325 326 326 327 327 326 326 326 326 327 327 326 326 326 326 326 326 325 325 324 323
233 231 227 226 227 227 228 229 224 221 222 224 224 222 222 225 226 227 228 229 232 235 237 240 239 236 235 236 239 243 247 253 260 264 267 267 267 269 271 273 274 275 280 286 291 295 299 302 304 306 309 311 312 308 303 301 300 300 301 302 305 310 315 321 324 325 326 326 326 326 326 326 326 326 325 325 325 326 327 327 327 326 325 325 324
232 231 227 223 223 224 227 229 225 221 223 225 224 225 225 226 228 228 228 229 232 234 236 236 235 232 232 235 239 242 245 249 255 261 265 267 267 268 268 269 274 279 284 288 294 298 301 303 305 308 311 313 315 314 309 304 302 301 300 302 304 306 310 316 320 323 325 326 326 325 325 325 325 325 324 324 324 325 326 326 326 326 326 325 324
231 231 229 225 224 226 229 230 224 220 223 224 223 224 225 228 231 231 231 230 229 231 232 231 230 230 231 234 238 241 245 251 256 261 264 265 265 264 264 267 274 281 285 290 296 301 302 304 306 309 311 312 315 317 317 312 308 305 302 303 306 307 310 313 315 319 321 324 325 325 324 324 324 324 324 324 324 324 324 325 326 325 325 324 323
231 231 229 226 227 228 228 228 225 224 226 222 219 222 225 230 233 232 230 227 226 228 228 226 224 227 231 234 237 240 247 255 256 259 261 263 262 261 264 267 274 281 287 293 299 303 305 306 308 310 311 312 314 317 320 320 318 313 309 307 307 309 311 311 312 315 318 322 324 324 324 323 323 324 324 324 325 324 324 325 325 325 325 324 323
232 231 228 226 226 225 224 224 226 228 227 221 219 223 227 230 232 230 227 223 224 225 222 221 222 226 231 235 237 240 248 252 253 256 259 260 259 259 263 265 272 283 291 297 303 306 308 309 311 312 312 314 314 314 318 321 322 321 319 316 313 313 313 311 310 312 315 319 322 323 324 324 324 324 324 324 325 325 324 324 325 325 324 324 322
231 229 228 227 225 223 223 224 227 228 225 222 223 227 229 231 232 231 227 223 222 221 218 221 225 228 231 234 235 239 244 248 252 257 257 255 255 256 260 264 275 288 296 302 306 308 310 312 313 314 314 315 314 313 316 317 318 322 323 323 322 320 318 316 314 313 312 315 320 322 323 324 324 324 324 324 324 324 324 323 323 323 323 323 322
230 227 226 227 225 224 224 226 228 226 223 223 226 230 231 232 232 231 228 223 219 217 218 223 226 228 230 230 231 236 242 247 252 255 252 249 250 253 260 269 281 292 299 304 307 310 312 315 317 318 318 318 317 317 317 316 316 318 321 322 324 323 322 321 319 318 315 314 318 322 322 322 324 324 323 323 323 324 324 323 323 323 323 323 322
229 226 223 225 224 224 224 224 225 225 225 226 229 231 232 232 234 232 227 220 214 212 217 221 223 224 225 224 229 235 241 248 251 249 244 243 247 255 265 277 286 293 300 305 309 313 315 317 319 320 321 321 322 322 321 321 320 319 319 319 320 320 321 322 321 321 320 318 318 321 321 321 322 323 323 322 322 323 324 324 324 324 323 323 323
229 226 222 223 222 222 223 222 224 226 227 228 230 231 230 231 231 229 223 214 208 208 213 217 219 221 220 221 227 234 241 248 248 242 241 243 250 262 273 282 288 294 300 306 311 315 317 319 320 321 322 323 324 325 325 326 326 324 322 320 320 320 319 321 322 322 322 321 321 322 323 323 322 323 323 322 322 322 324 325 324 324 324 323 323
228 227 224 222 221 222 223 224 226 229 230 230 230 229 229 229 227 223 217 210 207 210 214 218 221 221 220 222 229 237 243 247 243 239 241 247 257 268 277 283 289 296 303 308 312 315 317 319 320 321 323 324 326 327 328 329 328 328 327 325 323 323 321 322 323 323 324 324 324 324 325 325 323 323 324 323 323 323 324 325 325 325 325 324 323